This is the latest recevied weather packets stored in our database for station/object KI4MRC. If no packets are shown the sender has not sent any weather packets the latest 10 day(s).
| Time | Temp. | Humidity | Pressure | Rain* | Wind** | Luminosity | Snow |
|---|---|---|---|---|---|---|---|
| 1777916241 | 25.56° C | 75% | 1015.4 hPa | 0 mm | - | 349 W/m² | - |
| 1777915939 | 25.56° C | 76% | 1015.3 hPa | 0 mm | - | 669 W/m² | - |
| 1777915635 | 25° C | 78% | 1015.5 hPa | 0 mm | - | 594 W/m² | - |
| 1777915332 | 25.56° C | 76% | 1015.4 hPa | 0 mm | - | 191 W/m² | - |
| 1777915028 | 25.56° C | 75% | 1015.4 hPa | 0 mm | - | 210 W/m² | - |
| 1777914726 | 26.11° C | 74% | 1015.3 hPa | 0 mm | - | 317 W/m² | - |
| 1777914422 | 26.11° C | 75% | 1015.3 hPa | 0 mm | - | 397 W/m² | - |
| 1777914120 | 26.67° C | 74% | 1015.2 hPa | 0 mm | - | 379 W/m² | - |
| 1777913815 | 26.11° C | 75% | 1015.5 hPa | 0 mm | - | 486 W/m² | - |
| 1777913512 | 25.56° C | 76% | 1015.6 hPa | 0 mm | - | 493 W/m² | - |
| 1777913209 | 25° C | 78% | 1015.7 hPa | 0 mm | - | 394 W/m² | - |
| 1777912904 | 25° C | 78% | 1015.8 hPa | 0 mm | - | 278 W/m² | - |
| 1777912602 | 25° C | 77% | 1015.6 hPa | 0 mm | - | 177 W/m² | - |
| 1777912298 | 25° C | 78% | 1015.7 hPa | 0 mm | - | 152 W/m² | - |
| 1777911993 | 25.56° C | 79% | 1015.8 hPa | 0 mm | - | 207 W/m² | - |
| 1777911690 | 25.56° C | 79% | 1015.7 hPa | 0 mm | - | 320 W/m² | - |
| 1777911386 | 25.56° C | 80% | 1015.7 hPa | 0 mm | - | 312 W/m² | - |
| 1777911084 | 25.56° C | 79% | 1015.9 hPa | 0 mm | - | 306 W/m² | - |
| 1777910782 | 25.56° C | 80% | 1015.8 hPa | 0 mm | - | 320 W/m² | - |
| 1777910478 | 25.56° C | 81% | 1015.7 hPa | 0 mm | - | 442 W/m² | - |
| 1777910175 | 25.56° C | 82% | 1015.7 hPa | 0 mm | - | 412 W/m² | - |
| 1777909872 | 25.56° C | 83% | 1015.8 hPa | 0 mm | - | 297 W/m² | - |
| 1777909569 | 25° C | 86% | 1015.7 hPa | 0 mm | - | 690 W/m² | - |
| 1777909266 | 24.44° C | 89% | 1015.7 hPa | 0 mm | - | 1167 W/m² | - |
| 1777908964 | 24.44° C | 88% | 1015.9 hPa | 0 mm | - | 148 W/m² | - |
* Rain latest hour (hover to see other rain measurements)
** Current wind speed in m/s (hover to see current wind gust speed)